{"data":{"norad_id":39206,"intl_designator":"2013-036A","name":"MUOS-2","alt_names":[],"object_type":"PAYLOAD","status":"ACTIVE","operator":null,"country":"US","launch_date":"2013-07-19","launch_site_code":"AFETR","launch_vehicle":null,"mission":null,"orbit_class":"UNKNOWN","rcs_meters":23.1149,"size_class":null,"mass_kg":null,"dimensions":null,"purposes":["comms"],"wikipedia_slug":null,"has_3d_model":false,"image_url":null,"decayed_at":null,"tle_current":{"epoch":"2026-09-19T17:42:58.517856Z","epoch_age_seconds":87748,"freshness":"FRESH","line1":"1 39206U 13036A   26262.73817729 -.00000014  00000+0  00000+0 0  9999","line2":"2 39206   5.1825  45.5472 0057347 177.9729 212.8504  1.00272842 48143","mean_motion":1.00272842,"eccentricity":0.0057347,"inclination_deg":5.1825,"raan_deg":45.5472,"arg_perigee_deg":177.9729,"mean_anomaly_deg":212.8504,"bstar":0,"rev_number":4814,"period_min":1436.0817657886,"perigee_km":35544.498259211,"apogee_km":36028.099037436,"semimajor_km":42164.435648323,"source":"CELESTRAK","updated_at":"2026-09-20T09:00:35.204971Z"}}}